Flag for U.S.A. Weather past 2 weeks in Macon, Georgia, U.S.A.

Now
96 °F

Scattered clouds.


Feels Like: 100 °F
Forecast: 74 / 97 °F
Wind: 8 mph from Northwest

Location: Middle Georgia Regional Airport

Current Time: Aug 23, 2014 at 2:13:56 PM

Latest Report: Aug 23, 2014 at 12:53 PM


Visibility: 10 mi

Pressure: 29.95 "Hg

Humidity: 38%

Dew point: 67 °F

Location of MaconLocation

Historic Weather in Macon — Graph

°F

Macon temperature yesterday

Maximum temperature yesterday: 97 °F (at 5:53 PM)
Minimum temperature yesterday: 70 °F (at 6:53 AM)
Average temperature yesterday: 83 °F

Past Weeks' High & Low Weather Summary

 TemperatureHumidityPressure
High98 °F (Aug 21, 4:53 PM)100% (Aug 8, 10:53 PM)30.12 "Hg (Aug 8, 10:53 PM)
Low60 °F (Aug 14, 5:53 AM)28% (Aug 15, 3:53 PM)29.81 "Hg (Aug 12, 4:53 PM)
Average79 °F77%29.98 "Hg
* Reported Aug 8 12:53 PM — Aug 23 12:53 PM, Macon, Weather by CustomWeather, © 2014

Note: Actual official high and low records may vary slightly from our data, if they occured in-between our weather recording intervals... More about our weather records

Advertising

Macon weather history for previous 24 hours

 ConditionsComfort  
Time TempWeatherWind HumidityBarometerVisibility
12:53 PM
Aug 23
96 °FScattered clouds.8 mph38%29.95 "Hg10 mi
11:53 AM95 °FSunny.9 mph41%29.97 "Hg10 mi
10:53 AM92 °FSunny.8 mph49%29.98 "Hg10 mi
9:53 AM87 °FSunny.3 mph69%29.98 "Hg10 mi
8:53 AM79 °FSunny.5 mph88%29.98 "Hg10 mi
7:53 AM75 °FClear.No wind94%29.98 "Hg10 mi
6:53 AM73 °FClear.No wind100%29.96 "Hg10 mi
5:53 AM74 °FClear.No wind97%29.94 "Hg10 mi
4:53 AM73 °FClear.3 mph100%29.94 "Hg10 mi
3:53 AM75 °FClear.6 mph94%29.94 "Hg10 mi
2:53 AM74 °FClear.No wind100%29.95 "Hg10 mi
1:53 AM75 °FClear.3 mph100%29.96 "Hg10 mi
12:53 AM76 °FClear.No wind97%29.97 "Hg10 mi
11:53 PM
Aug 22
77 °FClear.No wind96%29.98 "Hg10 mi
10:53 PM79 °FClear.No wind90%29.98 "Hg10 mi
9:53 PM81 °FClear.3 mph88%29.97 "Hg10 mi
8:53 PM83 °FSunny.No wind82%29.97 "Hg10 mi
7:53 PM91 °FSunny.3 mph49%29.96 "Hg10 mi
6:53 PM94 °FPassing clouds.7 mph43%29.96 "Hg10 mi
5:53 PM97 °FPassing clouds.8 mph39%29.96 "Hg10 mi
4:53 PM94 °FScattered clouds.5 mph41%29.97 "Hg10 mi
3:53 PM95 °FPartly sunny.8 mph41%29.98 "Hg10 mi
2:53 PM94 °FScattered clouds.6 mph43%30.01 "Hg10 mi
Weather by CustomWeather, © 2014

See weather overviewHow to use our weather pages